Regional Weather Roundup
Issued by NWS Goodland, KS

Home | Current Version | Previous Version | Text Only | Print | Product List | Glossary Off
Versions: 1 2 3 4 5 6 7 8 9 10 11 12 13 14 15 16 17 18 19 20 21 22 23 24 25 26 27 28 29 30 31 32 33 34 35 36 37 38 39 40 41 42 43 44 45 46 47 48 49 50

171
ASUS43 KGLD 170359
RWRGLD

GOODLAND FORECAST AREA HOURLY WEATHER ROUNDUP
NATIONAL WEATHER SERVICE GOODLAND KS
1000 PM MDT MON OCT 16 2017

...OFFICIAL OBSERVATIONS...

CITY           SKY/WX    TMP DP  RH WIND       PRES   REMARKS
GOODLAND KS    CLEAR     54  32  43 SW8       30.15S
HILL CITY KS   CLEAR     58  37  45 SW6       30.14R
IMPERIAL NEB   CLEAR     50  31  48 W8        30.14S
MCCOOK NEB     PTCLDY    57  39  51 W9        30.11R
AKRON CO       CLOUDY    47  21  35 NE10      30.22R
BURLINGTON CO  CLOUDY    45  31  58 W10       30.19S
LIMON CO       CLOUDY    35  24  64 N6        30.26S
$$

...UNOFFICIAL OBSERVATIONS...

CITY           SKY/WX    TMP DP  RH WIND       PRES   REMARKS
NORTON KS      CLEAR     55  32  41 SW9       30.10
SHARON SPRINGS   N/A     53  37  54 CALM        N/A
TRENTON NEB      N/A     56  32  40 CALM        N/A
KIT CARSON CO    N/A     45  31  58 CALM        N/A
YUMA CO        FAIR      41  30  65 W3        30.19R
$$




USA.gov is the U.S. government's official web portal to all federal, state and local government web resources and services.